This demonstration page uses our WeatherBlox Daily Observations layout. Learn more.

Hourly Observations for May 1, 2018

Temp ( °F °C ) Dew Point ( °F °C ) Humidity (%) Winds ( mph kmh ) Pressure ( in mb ) Visibility ( mi km ) Precip ( " mm )
12:54 am 00:54 Clear 71 21.7 51 10.6 49 49 S 17 28 29.67 1005 10 16.0934 0 0
1:54 am 01:54 Mostly Clear 71 21.7 54 12.2 55 55 S 21 33 29.67 1005 10 16.0934 0 0
2:54 am 02:54 Clear 70 21.1 55 12.8 59 59 S 17 28 29.66 1004 10 16.0934 0 0
3:54 am 03:54 Clear 68 20 56 13.3 65 65 S 14 22 29.66 1005 10 16.0934 0 0
4:54 am 04:54 Cloudy 68 20 56 13.3 65 65 WSW 7 11 29.71 1006 10 16.0934 0 0
5:54 am 05:54 Cloudy 67 19.4 57 13.9 71 71 S 6 9 29.7 1006 10 16.0934 0 0
6:54 am 06:54 Mostly Cloudy 66 18.9 58 14.4 75 75 SSE 9 15 29.71 1006 10 16.0934 0 0
7:54 am 07:54 Sunny 68 20 59 15 73 73 SSE 7 11 29.71 1006 10 16.0934 0 0
8:54 am 08:54 Mostly Cloudy 71 21.7 60 15.6 68 68 S 18 30 29.7 1006 10 16.0934 0 0
9:43 am 09:43 Mostly Cloudy 73 22.8 61 16.1 66 66 SSW 21 33 29.68 1005 10 16.0934 0 0
9:54 am 09:54 Mostly Cloudy 75 23.9 61 16.1 62 62 SSW 18 30 29.7 1006 10 16.0934 0 0
10:54 am 10:54 Mostly Cloudy 75 23.9 61 16.1 62 62 S 21 33 29.7 1006 10 16.0934 0 0
11:54 am 11:54 Cloudy 74 23.3 62 16.7 67 67 S 18 30 29.7 1006 10 16.0934 0 0
12:06 pm 12:06 Cloudy 74 23.3 62 16.7 67 67 S 20 31 29.68 1005 10 16.0934 0 0
12:50 pm 12:50 Cloudy 75 24 63 17 65 65 S 18 30 29.68 1005 10 16.0934 0 0
12:54 pm 12:54 Cloudy 76 24.4 62 16.7 62 62 S 21 33 29.7 1006 10 16.0934 0 0
1:54 pm 13:54 Cloudy 77 25 62 16.7 60 60 S 15 24 29.7 1006 10 16.0934 0 0
2:54 pm 14:54 Mostly Cloudy 82 27.8 60 15.6 47 47 S 21 33 29.67 1005 10 16.0934 0 0
3:54 pm 15:54 Mostly Cloudy 81 27.2 60 15.6 49 49 S 23 37 29.65 1004 10 16.0934 0 0
4:54 pm 16:54 Mostly Sunny 79 26.1 59 15 50 50 S 30 48 29.58 1002 10 16.0934 0 0
5:54 pm 17:54 Partly Cloudy with Nearby Thunderstorms 74 23.3 62 16.7 67 67 S 26 43 29.62 1003 10 16.0934 0 0.0254
6:15 pm 18:15 Partly Cloudy with Light Rain 72 22.2 63 17.2 73 73 S 22 35 29.62 1003 9 14.48406 0 0.0254
6:54 pm 18:54 Sunny 81 27.2 45 7.2 28 28 S 29 46 29.62 1003 10 16.0934 0 0
7:04 pm 19:04 Sunny with Light Rain 70 21.1 64 17.8 82 82 S 33 54 29.53 1000 8 12.87472 0 0.0254
7:54 pm 19:54 Sunny 70 21.1 63 17.2 79 79 S 21 33 29.63 1003 10 16.0934 0 0.0254
8:54 pm 20:54 Clear 69 20.6 61 16.1 76 76 S 22 35 29.65 1004 10 16.0934 0 0
9:54 pm 21:54 Clear 69 20.6 62 16.7 78 78 S 16 26 29.65 1004 10 16.0934 0 0
10:54 pm 22:54 Clear 70 21.1 62 16.7 76 76 NW 13 20 29.7 1006 10 16.0934 0 0
11:54 pm 23:54 Partly Cloudy 69 20.6 61 16.1 76 76 WSW 10 17 29.74 1007 10 16.0934 0 0

Powered by AerisWeather